EW9788 Palm Harbor FL US current weather conditions

sailwx.info

Wind from 353

Air temperature 8.3° C
Dewpoint 6.0° C

Last reported at 2018-Dec-12 02:03 UTC.
Time now 2018-Dec-12 03:33 UTC

Location: N 28°04' W 082°44'.
View on Google Maps.

See reports from other nearby stations

  
Tides and Currents Weather Stations Pressure Air Temp Water Temp Dewpoint Dewpoint Depression Visibility Wind Speed Wind Dir Waves Ship Positions
date/time (UTC)wind fromknots sea level pressurealtimeterstation pressurevisibilityair tempwater tempwave heightnotes
2018-Dec-12 02:03 353 8.3
2018-Dec-12 02:00 353 8.3
2018-Dec-12 01:54 353 8.3
2018-Dec-12 01:47 353 8.3
2018-Dec-12 01:43 353 8.3
2018-Dec-12 01:34 353 0 8.9
2018-Dec-12 01:23 353 8.9
2018-Dec-12 01:17 353 0 8.3
2018-Dec-12 01:13 353 0 8.9
2018-Dec-12 01:03 353 8.3
2018-Dec-12 00:53 353 8.3
2018-Dec-12 00:46 353 8.3
2018-Dec-12 00:43 353 8.9
2018-Dec-12 00:33 353 0 8.9
2018-Dec-12 00:23 353 8.3
2018-Dec-12 00:17 353 8.3
2018-Dec-12 00:13 353 8.3
2018-Dec-12 00:03 353 8.3
2018-Dec-11 23:45 353 8.9
2018-Dec-11 23:33 353 9.4
2018-Dec-11 23:23 353 0 10.0
2018-Dec-11 23:18 353 0 10.0
2018-Dec-11 23:13 353 0 10.0
2018-Dec-11 23:03 357 10.6
2018-Dec-11 22:53 357 0 10.6
2018-Dec-11 22:46 353 0 10.6
2018-Dec-11 22:43 353 0 10.6
2018-Dec-11 22:33 359 1 11.1
2018-Dec-11 22:30 354 1 10.6
2018-Dec-11 22:24 359 2 11.1
2018-Dec-11 22:16 344 1 11.1
2018-Dec-11 22:13 359 1 11.1
2018-Dec-11 22:03 359 2 11.7
2018-Dec-11 21:53 333 2 11.7
2018-Dec-11 21:46 041 3 11.7
2018-Dec-11 21:43 359 3 11.7
2018-Dec-11 21:34 360 3 12.2
2018-Dec-11 21:23 344 4 11.7
2018-Dec-11 21:15 330 2 11.7
2018-Dec-11 21:03 360 4 12.2
2018-Dec-11 21:00 346 3 11.7
2018-Dec-11 20:54 336 3 12.2
2018-Dec-11 20:46 001 3 11.7
2018-Dec-11 20:43 354 3 12.2
2018-Dec-11 20:33 326 4 12.2
2018-Dec-11 20:23 196 5 12.2
2018-Dec-11 20:15 322 5 11.7
2018-Dec-11 20:03 319 6 12.2
2018-Dec-11 19:53 329 5 12.2
2018-Dec-11 19:45 007 6 11.7
2018-Dec-11 19:33 336 5 12.8
2018-Dec-11 19:30 336 4 12.2
2018-Dec-11 19:24 304 4 12.2
2018-Dec-11 19:16 312 5 12.2
2018-Dec-11 19:13 360 6 12.2
2018-Dec-11 19:03 360 3 12.2
2018-Dec-11 18:53 006 5 12.8
2018-Dec-11 18:47 017 5 11.7
2018-Dec-11 18:43 337 6 12.2
2018-Dec-11 18:34 311 6 12.2
2018-Dec-11 18:23 332 6 12.8
2018-Dec-11 18:16 356 6 12.8
2018-Dec-11 18:13 346 6 12.8
2018-Dec-11 18:03 312 7 12.2
2018-Dec-11 17:53 329 6 12.2
2018-Dec-11 17:48 344 6 11.7
2018-Dec-11 17:43 340 6 12.2
2018-Dec-11 17:33 326 6 11.7
2018-Dec-11 17:23 004 6 11.1
2018-Dec-11 17:15 347 5 11.1
2018-Dec-11 17:13 359 5 11.7
2018-Dec-11 17:03 010 6 12.2
2018-Dec-11 16:53 018 5 12.2
2018-Dec-11 16:46 328 5 11.1
2018-Dec-11 16:43 003 4 11.7
2018-Dec-11 16:33 006 5 11.7
2018-Dec-11 16:23 359 5 11.7
2018-Dec-11 16:15 018 4 10.6
2018-Dec-11 16:03 018 4 10.6
2018-Dec-11 16:00 339 4 10.0
2018-Dec-11 15:54 359 3 10.6
2018-Dec-11 15:47 340 5 10.6
2018-Dec-11 15:43 004 5 11.1
2018-Dec-11 15:34 001 3 10.6
2018-Dec-11 15:23 322 4 10.6
2018-Dec-11 15:16 323 4 10.0
2018-Dec-11 15:13 001 3 10.0
2018-Dec-11 15:04 212 4 10.0
2018-Dec-11 14:53 032 2 10.0
2018-Dec-11 14:45 068 2 9.4
2018-Dec-11 14:44 107 3 10.0
2018-Dec-11 14:33 343 4 9.4
2018-Dec-11 14:23 360 0 10.0
2018-Dec-11 14:16 041 2 10.0
2018-Dec-11 14:13 349 2 10.0
2018-Dec-11 14:03 360 3 10.0
2018-Dec-11 13:53 010 1 10.0
2018-Dec-11 13:47 10.0
2018-Dec-11 13:43 030 2 10.0
2018-Dec-11 13:33 360 1 10.0
2018-Dec-11 13:23 359 3 10.0
2018-Dec-11 13:18 349 3 9.4
2018-Dec-11 13:13 357 3 10.0
2018-Dec-11 13:04 037 2 10.0
2018-Dec-11 12:53 007 2 10.0
2018-Dec-11 12:45 349 2 10.0
2018-Dec-11 12:33 006 3 10.6
2018-Dec-11 12:23 359 5 11.1
2018-Dec-11 12:17 336 4 10.6
2018-Dec-11 12:13 344 4 11.1
2018-Dec-11 12:03 311 4 11.1
2018-Dec-11 12:00 352 4 10.6
2018-Dec-11 11:54 326 5 11.1
2018-Dec-11 11:48 339 4 10.6
2018-Dec-11 11:43 034 4 11.1
2018-Dec-11 11:34 001 4 11.1
2018-Dec-11 11:23 344 5 11.1
2018-Dec-11 11:15 332 5 10.6
2018-Dec-11 11:03 295 4 11.1
2018-Dec-11 10:53 004 4 11.1
2018-Dec-11 10:45 343 4 10.0
2018-Dec-11 10:33 359 0 9.4
2018-Dec-11 10:30 357 0 8.9
2018-Dec-11 10:23 344 8.9
2018-Dec-11 10:16 8.3
2018-Dec-11 10:13 360 8.3
2018-Dec-11 10:03 360 8.3
2018-Dec-11 09:53 360 8.3
2018-Dec-11 09:46 7.8
2018-Dec-11 09:43 360 8.3
2018-Dec-11 09:33 320 8.3
2018-Dec-11 09:23 320 8.3
2018-Dec-11 09:16 320 7.8
2018-Dec-11 09:13 320 8.3
2018-Dec-11 09:03 320 8.3
2018-Dec-11 08:53 059 8.3
2018-Dec-11 08:47 083 8.3
2018-Dec-11 08:43 083 8.3
2018-Dec-11 08:38 083 8.3
2018-Dec-11 08:31 083 7.8
2018-Dec-11 08:23 083 8.3
2018-Dec-11 08:16 083 8.3
2018-Dec-11 08:13 083 8.3
2018-Dec-11 08:03 083 0 8.3
2018-Dec-11 07:53 086 8.3
2018-Dec-11 07:48 080 8.3
2018-Dec-11 07:43 080 8.3
2018-Dec-11 07:33 080 8.3
2018-Dec-11 07:23 080 8.3
2018-Dec-11 07:16 080 0 8.3
2018-Dec-11 07:13 080 8.9
2018-Dec-11 07:03 078 0 8.9
2018-Dec-11 06:54 052 9.4
2018-Dec-11 06:46 052 8.9
2018-Dec-11 06:43 052 0 9.4
2018-Dec-11 06:33 316 9.4
2018-Dec-11 06:23 096 0 9.4
2018-Dec-11 06:16 096 0 8.9
2018-Dec-11 06:13 097 0 9.4
2018-Dec-11 06:03 090 9.4
2018-Dec-11 05:53 090 9.4
2018-Dec-11 05:47 090 8.9
2018-Dec-11 05:43 090 0 9.4
2018-Dec-11 05:33 090 0 9.4
2018-Dec-11 05:23 090 0 8.9
2018-Dec-11 05:16 090 8.9
2018-Dec-11 05:13 090 8.9
2018-Dec-11 05:03 090 8.9
2018-Dec-11 04:53 080 0 8.9
2018-Dec-11 04:48 080 1 8.9
2018-Dec-11 04:43 106 1 8.9
2018-Dec-11 04:33 127 1 8.9
2018-Dec-11 04:30 096 0 8.9
2018-Dec-11 04:24 095 0 9.4
2018-Dec-11 04:17 103 0 8.9
2018-Dec-11 04:13 117 0 9.4
2018-Dec-11 04:03 097 1 9.4
2018-Dec-11 04:00 102 0 8.9
2018-Dec-11 03:54 103 0 9.4
2018-Dec-11 03:46 089 1 8.9
2018-Dec-11 03:43 089 1 9.4
2018-Dec-11 03:34 038 1 9.4
2018-Dec-11 03:23 096 0 9.4
2018-Dec-11 03:17 104 1 8.9
2018-Dec-11 03:13 088 1 9.4
2018-Dec-11 03:03 076 0 9.4
2018-Dec-11 02:53 083 1 9.4
2018-Dec-11 02:47 106 0 9.4
2018-Dec-11 02:43 092 0 9.4
2018-Dec-11 02:33 095 0 10.0
2018-Dec-11 02:23 088 0 10.0
2018-Dec-11 02:16 088 0 9.4
2018-Dec-11 02:13 088 0 10.0
2018-Dec-11 02:03 088 0 10.0
2018-Dec-11 01:53 059 10.0
2018-Dec-11 01:46 059 0 9.4
2018-Dec-11 01:43 059 0 10.0
2018-Dec-11 01:33 056 10.0
2018-Dec-11 01:23 056 10.0
2018-Dec-11 01:15 056 10.0
2018-Dec-11 01:03 056 10.6
2018-Dec-11 01:00 052 10.0
2018-Dec-11 00:54 052 10.6
2018-Dec-11 00:46 346 10.6
2018-Dec-11 00:43 346 10.6
2018-Dec-11 00:34 055 10.6
2018-Dec-11 00:23 056 10.6
2018-Dec-11 00:15 056 10.6
2018-Dec-11 00:13 056 11.1
2018-Dec-11 00:03 360 0 11.1
2018-Dec-10 23:53 010 1 11.1
2018-Dec-10 23:43 347 1 11.1
2018-Dec-10 23:33 359 2 11.1
2018-Dec-10 23:23 342 2 11.1
2018-Dec-10 23:17 357 2 10.6
2018-Dec-10 23:13 359 1 11.1
2018-Dec-10 23:03 349 0 11.1
2018-Dec-10 22:53 360 2 11.7
2018-Dec-10 22:48 356 3 11.7
2018-Dec-10 22:43 342 3 11.7
2018-Dec-10 22:34 356 2 11.7
2018-Dec-10 22:23 016 4 11.7
2018-Dec-10 22:17 337 5 11.7
2018-Dec-10 22:13 315 5 12.2
2018-Dec-10 22:03 354 5 12.2
2018-Dec-10 22:00 352 5 11.7
2018-Dec-10 21:54 010 5 12.2
2018-Dec-10 21:43 343 4 12.8
2018-Dec-10 21:33 336 5 12.8
2018-Dec-10 21:23 344 5 12.8
2018-Dec-10 21:16 352 5 12.8
2018-Dec-10 21:13 329 4 12.8
2018-Dec-10 21:03 360 6 13.3
2018-Dec-10 20:53 353 6 13.3
2018-Dec-10 20:47 332 5 13.3
2018-Dec-10 20:43 344 5 13.3
2018-Dec-10 20:34 006 6 13.3
2018-Dec-10 20:23 349 6 13.3
2018-Dec-10 20:16 359 6 13.3
2018-Dec-10 20:13 326 7 13.9
2018-Dec-10 20:03 326 6 13.9
2018-Dec-10 19:53 298 6 14.4
2018-Dec-10 19:46 14.4
2018-Dec-10 19:43 335 7 14.4
2018-Dec-10 19:34 332 7 15.0
2018-Dec-10 19:23 337 8 14.4
2018-Dec-10 19:15 14.4
2018-Dec-10 19:03 343 7 14.4
2018-Dec-10 18:53 332 7 15.0
2018-Dec-10 18:43 353 8 14.4
2018-Dec-10 18:33 292 6 15.0
2018-Dec-10 18:30 278 6 15.0
2018-Dec-10 18:24 316 6 14.4
2018-Dec-10 18:16 315 6 14.4
2018-Dec-10 18:13 356 6 15.0
2018-Dec-10 18:03 003 7 14.4
2018-Dec-10 17:46 342 6 14.4
2018-Dec-10 17:43 350 7 14.4
2018-Dec-10 17:34 350 6 14.4
2018-Dec-10 17:23 356 7 14.4
2018-Dec-10 17:16 343 7 14.4
2018-Dec-10 17:13 360 7 14.4
2018-Dec-10 17:03 325 8 14.4
2018-Dec-10 16:53 344 7 15.6
2018-Dec-10 16:46 296 6 15.0
2018-Dec-10 16:43 340 6 15.0
2018-Dec-10 16:33 360 7 14.4
2018-Dec-10 16:23 360 6 14.4
2018-Dec-10 16:16 353 6 13.9
2018-Dec-10 16:13 339 7 14.4
2018-Dec-10 16:03 349 6 14.4
2018-Dec-10 15:53 354 6 14.4
2018-Dec-10 15:46 357 6 14.4
2018-Dec-10 15:43 031 6 14.4
2018-Dec-10 15:34 325 6 14.4
2018-Dec-10 15:23 352 7 14.4
2018-Dec-10 15:15 14.4
2018-Dec-10 15:03 328 7 15.0
2018-Dec-10 14:53 342 5 15.0
2018-Dec-10 14:47 328 4 14.4
2018-Dec-10 14:43 306 5 15.0
2018-Dec-10 14:33 360 6 14.4
2018-Dec-10 14:23 357 6 14.4
2018-Dec-10 14:16 339 6 13.9
2018-Dec-10 14:13 329 6 14.4
2018-Dec-10 14:03 344 6 14.4
2018-Dec-10 13:53 250 5 14.4
2018-Dec-10 13:46 350 4 14.4
2018-Dec-10 13:43 330 4 14.4
2018-Dec-10 13:33 357 6 14.4
2018-Dec-10 13:23 352 5 14.4
2018-Dec-10 13:17 332 5 13.9
2018-Dec-10 13:13 335 5 14.4
2018-Dec-10 13:03 326 6 14.4
2018-Dec-10 12:53 332 4 14.4
2018-Dec-10 12:47 343 6 13.9
2018-Dec-10 12:43 342 6 13.9
2018-Dec-10 12:33 356 5 14.4
2018-Dec-10 12:23 354 5 14.4
2018-Dec-10 12:17 325 6 13.9
2018-Dec-10 12:13 330 6 14.4
2018-Dec-10 12:03 006 5 14.4
2018-Dec-10 11:53 007 6 14.4
2018-Dec-10 11:46 13.9
2018-Dec-10 11:43 360 5 13.9
2018-Dec-10 11:34 339 4 13.9
2018-Dec-10 11:23 357 5 13.9
2018-Dec-10 11:15 342 5 13.9
2018-Dec-10 11:03 326 6 13.9
2018-Dec-10 10:53 350 4 14.4
2018-Dec-10 10:45 13.9
2018-Dec-10 10:33 339 6 14.4
2018-Dec-10 10:30 340 5 13.9
2018-Dec-10 10:24 325 4 14.4
2018-Dec-10 10:16 346 4 13.9
2018-Dec-10 10:13 354 4 14.4
2018-Dec-10 10:03 319 5 14.4
2018-Dec-10 10:00 349 6 14.4
2018-Dec-10 09:54 332 6 14.4
2018-Dec-10 09:47 344 6 14.4
2018-Dec-10 09:43 336 6 14.4
2018-Dec-10 09:33 347 6 14.4
2018-Dec-10 09:23 349 5 14.4
2018-Dec-10 09:17 336 6 14.4
2018-Dec-10 09:13 353 6 14.4
2018-Dec-10 09:03 306 6 15.0
2018-Dec-10 08:53 352 5 15.0
2018-Dec-10 08:46 357 6 14.4
2018-Dec-10 08:43 309 6 15.0
2018-Dec-10 08:33 337 6 15.0
2018-Dec-10 08:23 360 6 15.0
2018-Dec-10 08:17 340 5 14.4
2018-Dec-10 08:13 344 5 15.0
2018-Dec-10 08:03 347 6 15.0
2018-Dec-10 07:53 004 4 14.4
2018-Dec-10 07:46 344 5 14.4
2018-Dec-10 07:43 344 6 14.4
2018-Dec-10 07:34 322 6 15.0
2018-Dec-10 07:23 360 5 15.0
2018-Dec-10 07:16 288 5 14.4
2018-Dec-10 07:13 343 4 15.0
2018-Dec-10 07:03 360 4 15.0
2018-Dec-10 06:53 315 5 15.0
2018-Dec-10 06:46 313 4 15.0
2018-Dec-10 06:43 330 4 15.6
2018-Dec-10 06:33 336 4 15.6
2018-Dec-10 06:30 284 5 15.6
2018-Dec-10 06:23 354 5 16.1
2018-Dec-10 06:16 319 5 15.6
2018-Dec-10 06:13 291 6 16.1
2018-Dec-10 06:01 313 6 16.1
2018-Dec-10 05:53 336 6 16.7
2018-Dec-10 05:47 350 4 16.1
2018-Dec-10 05:43 305 4 16.7
2018-Dec-10 05:34 330 4 16.7
2018-Dec-10 05:23 318 4 16.7
2018-Dec-10 05:16 299 4 16.7
2018-Dec-10 05:13 301 4 17.2
2018-Dec-10 05:03 294 5 17.2
2018-Dec-10 04:53 313 6 17.2
2018-Dec-10 04:46 322 6 17.2
2018-Dec-10 04:43 328 5 17.8
2018-Dec-10 04:33 294 4 17.8
2018-Dec-10 04:23 330 5 17.8
2018-Dec-10 04:16 330 5 17.8
2018-Dec-10 04:13 274 5 18.3
2018-Dec-10 04:03 330 4 18.3
2018-Dec-10 03:53 267 5 18.3
2018-Dec-10 03:46 275 6 18.3
2018-Dec-10 03:43 296 6 18.3
2018-Dec-10 03:33 291 5 18.3
2018-Dec-10 03:23 254 4 18.3
2018-Dec-10 03:16 288 5 18.3
2018-Dec-10 03:13 288 5 18.9
2018-Dec-10 03:03 287 6 18.9